MHSAA State Championships LP 2011 vs MHSAA State Championships LP 2009

Aggregate Data Points
Difference This Meet That Meet
Overall Athletes +19 1943 1924
Overall Average -32.08 19:16.21 19:48.29
1st-10th Place -18.01 15:29.81 15:47.82
1st-25th Place -16.22 15:41.87 15:58.09
1st-50th Place -16.55 15:50.54 16:07.09
1st-100th Place -17.02 16:01.40 16:18.42
Common Athletes -- -- 373
Ran Faster 274 324 50
Ran Season Best -- 373 373
Average Time -53.43 18:43.64 19:37.07
Median Time -49.80 18:39.80 19:29.60
Middle 80% Times -51.96 18:37.57 19:29.52
Top 10% Times -51.29 15:59.71 16:51.00
Top 25% Times -52.92 16:22.12 17:15.04
Top 50% Times -56.45 17:00.05 17:56.50
Bottom 50% Times -50.12 20:21.22 21:11.34
Bottom 25% Times -56.52 21:21.86 22:18.38
Bottom 10% Times -1:07.03 22:23.44 23:30.48
Average Difference -53.43 -- --
Median Difference -1:03.90 -- --
Middle 80% Difference -50.88 -- --
Top 10% Difference -37.31 -- --
Top 50% Difference -53.34 -- --
Top 25% Difference -43.91 -- --
Top 50% Difference -53.34 -- --
Bottom 50% Difference -53.51 -- --
Bottom 25% Difference -1:07.36 -- --
Bottom 10% Difference -1:31.47 -- --

Performances of Common Athletes
Athlete Team Difference This Meet That Meet
Bryce Bradley Chelsea -1:06.60 15:20.60 16:27.20
Nick Soter Dearborn Divine Child -2:04.70 15:21.90 17:26.60
Tj Carey Lake Orion -45.90 15:32.30 16:18.20
Connor Mora Cedar Springs -50.20 15:33.20 16:23.40
Cody Snavely Highland Milford -1:20.40 15:37.10 16:57.50
Tom Girardot Birmingham Brother Rice -1:12.90 15:40.20 16:53.10
Jeff Bajema Grand Rapids Kenowa Hills -1:17.90 15:40.80 16:58.70
Zachary Zingsheim Lansing Catholic -1:41.70 15:48.20 17:29.90
Derek Gielarowski Plymouth -1:02.70 15:50.90 16:53.60
Clark Ruiz Big Rapids -44.30 15:53.10 16:37.40
Jacob Higle-Ralbovsky Ann Arbor Huron -1:20.70 15:53.40 17:14.10
Alex Whitmer Mason -1:22.30 15:54.30 17:16.60
Zachary Kughn Grand Blanc -1:05.30 15:55.70 17:01.00
Spencer Nousain Concord -13.90 15:55.80 16:09.70
Josh Kersjes Grandville Calvin Christian -55.30 15:56.90 16:52.20
Stephe Biebelhausen Rochester Adams -56.00 15:57.30 16:53.30
Nick Raymond Erie-Mason -2:06.00 15:59.00 18:05.00
Sean Kelly Saugatuck -48.70 16:00.30 16:49.00
William Yau Troy -27.50 16:01.40 16:28.90
Simon Reidsma Grandville Calvin Christian -1:31.20 16:03.80 17:35.00
Brandon Winter Ionia -50.30 16:06.00 16:56.30
Griffin Miller Dearborn Divine Child -2:08.30 16:06.40 18:14.70
Eddie Komph New Baltimore Anchor Bay -34.70 16:06.50 16:41.20
David Zinger Evart -1:17.70 16:06.60 17:24.30
Connor Montgomery Ionia -46.30 16:07.50 16:53.80
Ryan Beyea Haslett -51.70 16:08.30 17:00.00
Justus Pinckney Grandville Calvin Christian -59.70 16:08.50 17:08.20
Evan Chiplock Saginaw Heritage -12.30 16:09.70 16:22.00
Jimmy Hicks Lansing Catholic -1:08.00 16:13.60 17:21.60
Alexey Vermeulen Dexter -49.10 16:14.90 17:04.00
Max Benoit Royal Oak -1:56.50 16:16.10 18:12.60
Ryan Hearth Cadillac -56.20 16:16.40 17:12.60
Jeff Cherry Hesperia -1:36.30 16:17.30 17:53.60
Matt Greve Dexter -1:08.70 16:17.50 17:26.20
Nick Wharry Ionia -29.70 16:18.10 16:47.80
Alex Geitek Hartland -40.80 16:19.60 17:00.40
Tim Jurick Brighton -50.70 16:19.80 17:10.50
Nate Cruz Saginaw Heritage -55.80 16:19.80 17:15.60
Casey Voisin Mt. Pleasant Sacred Heart -43.10 16:20.20 17:03.30
Joe Oehrli Reed City -1:04.70 16:21.20 17:25.90
Danny Hughes Vicksburg -59.90 16:21.80 17:21.70
Brandon Scharich Saginaw Heritage -1:55.00 16:21.90 18:16.90
Miles Felton Canton +22.40 16:45.60 16:23.20
Kyle Losey Stockbridge -1:57.50 16:23.30 18:20.80
Joseph Beemer St. Joseph -52.50 16:24.00 17:16.50
Eric Edmond Frankenmuth -55.00 16:25.30 17:20.30
William Huddleston Benzie Central -1:11.20 16:25.50 17:36.70
Eric Veldkamp Grand Rapids Christian -1:06.30 16:26.10 17:32.40
Adam Horace Temperance-Bedford -47.60 16:27.00 17:14.60
Tim Young Saranac -1:43.50 16:27.30 18:10.80
Taylor Neely Dexter -25.30 16:28.70 16:54.00
Alec Armstrong Stockbridge -1:08.70 16:29.80 17:38.50
Andre Otte Grand Rapids Christian -1:23.00 16:30.60 17:53.60
Charlend Howard Gaylord -49.80 16:30.70 17:20.50
Zach Scheich Dundee -1:20.90 16:30.70 17:51.60
Ryan Leahy St. Joseph -1:28.10 16:30.90 17:59.00
Russ Werra Grand Rapids Kenowa Hills -32.90 16:31.50 17:04.40
Jacob Chovaz North Muskegon -24.80 16:32.20 16:57.00
Austin Wigent Reading -1:04.90 16:32.70 17:37.60
Carson Truesdell Grand Blanc -1:11.40 16:33.00 17:44.40
Ben Schilling Mt. Pleasant Sacred Heart -33.30 16:33.30 17:06.60
Nick Vanderkooi Fremont Providence Christian (CLOSED) -23.30 16:34.00 16:57.30
Mitchell Ellsworth Saginaw Heritage -48.60 16:34.50 17:23.10
George O'connor Croswell-Lexington -22.00 16:34.80 16:56.80
Jack Stephan Grand Rapids Forest Hills Eastern -1:53.50 16:35.30 18:28.80
Randy Gottler St. Clair -1:15.40 16:36.90 17:52.30
Rob Kovach Chesaning -1:37.70 16:37.40 18:15.10
Nate Fischer Gaylord -1:02.70 16:37.70 17:40.40
Fiodor Kessler Goodrich -1:55.40 16:39.30 18:34.70
Michael Myers Kalamazoo Hackett -1:35.40 16:39.50 18:14.90
Bryan Peoples Albion (CLOSED) -1:26.30 16:39.80 18:06.10
William Trice Grand Rapids Forest Hills Northern -20.70 16:40.20 17:00.90
Mathia Waterstradt North Muskegon -53.50 16:40.40 17:33.90
Jonathan Parker Saline -59.40 16:41.20 17:40.60
Michael Gawlik Bloomfield Hills Lahser (CLOSED) -1:42.70 16:41.80 18:24.50
Parker Saenz Concord -2:12.20 16:41.90 18:54.10
Evan Carter Southfield Christian -1:28.90 16:43.90 18:12.80
Thomas Meeker Mattawan -18.60 16:45.00 17:03.60
Jacob Fong Saginaw Swan Valley -59.40 16:45.00 17:44.40
David Burkland Almont -1:01.10 16:45.30 17:46.40
Tim Bougher Dexter -55.90 16:45.40 17:41.30
Alex Benham North Muskegon -1:43.20 16:45.90 18:29.10
John Ball Perry -29.30 16:46.20 17:15.50
Jacob Towne Grand Rapids Forest Hills Northern +6.80 16:53.10 16:46.30
Silas Dekalita Clio -1:16.10 16:46.80 18:02.90
Ashwin Fugii Ann Arbor Greenhills -1:23.90 16:47.30 18:11.20
Brian Larabel Bloomingdale -1:29.60 16:48.20 18:17.80
John Worthington Warren Mott -1:15.40 16:48.80 18:04.20
Kirk Acharya Charlevoix -36.70 16:49.00 17:25.70
Logan Hammer Evart -1:16.10 16:49.00 18:05.10
Eric Fegan Pinckney -24.50 16:49.20 17:13.70
John Forsyth Chesaning -1:04.70 16:50.60 17:55.30
Leonard Jackson Royal Oak -1:28.60 16:51.90 18:20.50
Brandon Beckman Chesaning -40.60 16:52.00 17:32.60
David Whaley Byron -39.30 16:53.40 17:32.70
Austin Winter Lansing Catholic -28.60 16:53.90 17:22.50
Lukasz Walilko Sterling Heights Stevenson -42.00 16:54.10 17:36.10
Greg Trierweiler Pewamo-Westphalia -1:24.60 16:54.50 18:19.10
Kyle Hardy Potterville -1:27.30 16:56.80 18:24.10
Travis Clous Benzie Central -12.30 16:57.50 17:09.80
Scott Ratkowski Warren deLaSalle -47.10 16:57.60 17:44.70
Tyler Harrison Leslie +11.90 17:09.70 16:57.80
Evan Thomas Roscommon -17.00 16:58.40 17:15.40
Ryan Regan Monroe Jefferson -52.70 16:58.80 17:51.50
Austin Lavigne Mason County Central -48.70 16:59.70 17:48.40
Mcguire Caleb Bronson -9.50 17:00.10 17:09.60
Mason Przybysz Caledonia -21.70 17:00.20 17:21.90
Andrew Rylaarsdam Grandville Calvin Christian -1:50.30 17:03.60 18:53.90
Anwar Munye East Kentwood -1:02.50 17:03.70 18:06.20
Ethan Trombley Yale -39.70 17:05.50 17:45.20
Drew Woznick Rockford -7.40 17:06.80 17:14.20
Michael Sutton Harbor Springs -1:17.70 17:06.80 18:24.50
Tanner Vida Clare -26.60 17:07.10 17:33.70
Josh Klebba Almont -1:24.00 17:09.80 18:33.80
Jared Masserant Monroe St. Mary Catholic Central -35.20 17:10.20 17:45.40
Grant Cook Grand Rapids Forest Hills Northern -24.40 17:10.50 17:34.90
Charlie Clark Beal City -1:11.90 17:11.70 18:23.60
Ronnie Milbocker Whitmore Lake -33.10 17:13.80 17:46.90
Matthew Sutton Royal Oak Shrine -1:33.00 17:14.90 18:47.90
Sean Hrecho St. Clair -1:35.40 17:15.30 18:50.70
Jarret Anderson Bridgman -38.50 17:15.30 17:53.80
Joseph Dabrowski Okemos -7.50 17:15.90 17:23.40
Brent Wegner Freeland -11.70 17:16.00 17:27.70
Andrew Mumford Mt. Pleasant Sacred Heart -1:32.30 17:17.20 18:49.50
Ben Kloss Harbor Springs -28.30 17:17.60 17:45.90
Frank Moen St. Joseph Lake Michigan Catholic -35.80 17:17.70 17:53.50
Jake Nye Temperance-Bedford -55.80 17:18.10 18:13.90
Connor Bresnahan Kalamazoo Hackett -1:15.10 17:18.10 18:33.20
Brandon Frank Clare -1:30.00 17:19.30 18:49.30
Heath Welch Mackinaw City -1:39.40 17:21.60 19:01.00
Torin Wile Birmingham Brother Rice +32.90 17:54.70 17:21.80
Nathan Bookmyer Frankenmuth -1:38.30 17:21.90 19:00.20
Alex Huston Traverse City Grand Traverse Academy -34.90 17:23.50 17:58.40
Taylor Manett Rockford -2:23.30 17:24.00 19:47.30
Hannah Meier Grosse Pointe South -53.00 17:24.10 18:17.10
Julia Bos Grand Rapids Christian -1:51.00 17:24.70 19:15.70
Justin Kiewel Bridgman +20.90 17:46.50 17:25.60
Zach Huffstedler Mendon -1:45.50 17:26.30 19:11.80
Ryan Watson Delton Kellogg -13.10 17:27.20 17:40.30
Thayer Lowe North Muskegon -1:05.50 17:27.90 18:33.40
Ben Spencer St. Joseph Lake Michigan Catholic -1:24.10 17:28.80 18:52.90
Ricky Robbins Armada -1:37.70 17:29.50 19:07.20
Mike Woodman Freeland -46.00 17:29.50 18:15.50
Sean Hope Gaylord -50.60 17:30.90 18:21.50
Avery Osentoski Chelsea -2:11.40 17:31.70 19:43.10
Adrian Taylor Linden -1:30.00 17:31.90 19:01.90
Adam Faust Ida -39.10 17:32.30 18:11.40
Matt Marine Sand Creek -1:08.20 17:32.40 18:40.60
Kelly Simmons Holton -2:28.10 17:32.60 20:00.70
Adam Terwillegar Midland Bullock Creek +5.30 17:39.70 17:34.40
Alexis Wiersma Allendale -1:31.70 17:36.60 19:08.30
Matthew Mangulbnan Dearborn Divine Child -54.60 17:37.00 18:31.60
Tyler Groenwald Bear Lake -9.60 17:41.30 17:50.90
Antonio Millitello Evart -2:55.90 17:42.70 20:38.60
Shelby Jackson Romeo -1:46.60 17:44.10 19:30.70
Andrew Plude Charlevoix +16.40 18:08.00 17:51.60
Rant Blighton Eau Claire -48.40 17:53.40 18:41.80
Ian Callison Gaylord -47.20 17:54.00 18:41.20
Avery Evenson Hartland -13.10 17:57.20 18:10.30
Heath Ahlers Mt. Pleasant Sacred Heart -59.90 17:58.30 18:58.20
Kelly Schubert Manistee -2:01.40 17:58.60 20:00.00
Tony Fuller Bellevue -14.90 18:00.10 18:15.00
Cody Dobson Croswell-Lexington -1:06.10 18:00.80 19:06.90
Brooke Kovacic Oxford -55.40 18:03.80 18:59.20
Jeremy Culver Southfield Christian -30.10 18:04.00 18:34.10
Colton Eurich Chesaning -1:07.90 18:07.40 19:15.30
Rachele Schulist Zeeland West -21.80 18:14.40 18:36.20
Nate Konkel Newport Lutheran South -46.50 18:16.30 19:02.80
Kyle Moreau Onaway -23.20 18:16.40 18:39.60
Molly Oren Hamilton -51.90 18:16.90 19:08.80
Jamie Morrissey Rochester Adams -39.00 18:18.20 18:57.20
Katie Weiler Cedar Springs -59.00 18:22.10 19:21.10
Raquel Serna St. Louis -51.80 18:23.10 19:14.90
Alex Kraft Suttons Bay -1:33.80 18:23.20 19:57.00
Haley Meier Grosse Pointe South -10.90 18:24.10 18:35.00
Sara Barron Pontiac Notre Dame Prep -3:08.80 18:24.20 21:33.00
Matt Arce Royal Oak Shrine -16.00 18:24.90 18:40.90
Julia Valencia Walled Lake Western -35.70 18:25.10 19:00.80
Alex Gooch Charlevoix -13.30 18:28.20 18:41.50
Lindsey Burdette Hanover-Horton -1:00.50 18:29.40 19:29.90
Kassidy Clark East Grand Rapids -1:03.90 18:30.70 19:34.60
Jonah Mathieu Kalamazoo Hackett -1:42.90 18:31.90 20:14.80
Kyle Robinson Almont -1:31.60 18:32.70 20:04.30
Alex Newton Evart -1:22.60 18:35.50 19:58.10
Emily Oren Hamilton -47.70 18:35.60 19:23.30
Cathy Coryell Hamilton -47.90 18:38.70 19:26.60
Sammy Mondry Grandville -35.80 18:39.80 19:15.60
Clara Cullen Grand Rapids Forest Hills Eastern -1:14.20 18:40.30 19:54.50
Nicole Zeinstra Holland Black River -1:49.90 18:40.30 20:30.20
Kerigan Riley Livonia Churchill -2:36.10 18:40.80 21:16.90
Jessie Baloga East Grand Rapids -20.00 18:41.70 19:01.70
Jackie Mullins Novi +18.50 19:00.70 18:42.20
Jane Hawks Rockford -16.60 18:42.20 18:58.80
Emma Frost Lansing Catholic -2:00.50 18:43.60 20:44.10
Claudia Vredeveld Grand Rapids Forest Hills Northern -1:35.50 18:44.00 20:19.50
Megan Hubbard Hanover-Horton -42.40 18:44.90 19:27.30
Morgan Bridgewater White Lake Lakeland -1:06.50 18:45.00 19:51.50
Alexa Rumsey Hesperia -1:30.30 18:45.70 20:16.00
Taylor Stepanski Alpena +49.20 19:35.60 18:46.40
Meridith Deluca Johannesburg-Lewiston -2:27.10 18:47.90 21:15.00
Christy Snelgrove Grand Ledge -52.90 18:51.00 19:43.90
Amy Creutz Saline -1:56.60 18:51.80 20:48.40
Rachel Durbin Armada -49.60 18:53.40 19:43.00
Casey Lawson Middleville-Thornapple Kellogg -57.30 18:56.10 19:53.40
Theresa Warsecke Benzie Central -1:56.20 18:57.10 20:53.30
Josh Turske Kalamazoo Hackett +32.00 19:30.20 18:58.20
Jessica Delaney Jackson Northwest -1:00.10 18:59.50 19:59.60
Sarah Johnson Rochester Adams -28.20 19:01.40 19:29.60
Nick Howard Sand Creek -58.90 19:01.40 20:00.30
Becca Schott Coldwater -1:04.70 19:02.60 20:07.30
Mickey Ludlow Jackson Lumen Christi -1:15.60 19:03.40 20:19.00
Hannah Grischke Williamston +28.40 19:32.20 19:03.80
Tess Wilberding Birmingham Seaholm +1.10 19:08.90 19:07.80
Jemma Howlett Bloomfield Hills Cranbrook-Kingswood -1:26.90 19:10.00 20:36.90
Alex Trecha East Lansing +47.20 19:58.50 19:11.30
Mallory Wilberding Birmingham Seaholm +1:06.60 20:18.20 19:11.60
Audrey Tremaine Leslie -15.20 19:13.00 19:28.20
Jessica Disselkoen Grandville Calvin Christian -1:37.50 19:14.40 20:51.90
Heather Price Saugatuck -1:06.30 19:14.40 20:20.70
Jeanne Wilson Kent City -2:22.90 19:14.50 21:37.40
Alex Ringel Bear Lake +3.80 19:20.60 19:16.80
Brooke Prieskorn Leslie -56.10 19:17.90 20:14.00
Alyssa Cummings Saline -15.30 19:18.00 19:33.30
Gabbie Bates Hesperia -3:29.50 19:18.00 22:47.50
Anne Redd Temperance-Bedford -3:14.40 19:18.90 22:33.30
Miranda Haas Pinckney -2:00.20 19:20.90 21:21.10
Christian Russell Mendon -1:50.10 19:23.70 21:13.80
Sadie Ringer Kent City -37.90 19:26.10 20:04.00
Erin Dunne Northville -1:28.10 19:28.00 20:56.10
Allison Dible Grand Ledge -1:03.10 19:29.20 20:32.30
Julia Stock Grand Haven -47.90 19:29.30 20:17.20
Alexis Sinclair Bloomfield Hills Andover (CLOSED) -1:22.90 19:29.50 20:52.40
Carla Jones East Lansing +13.30 19:44.00 19:30.70
Catherine Keegin Grand Haven -38.60 19:31.20 20:09.80
Brianna Kalisz Marshall -19.70 19:31.90 19:51.60
Andrea Cerullo Pinckney +19.50 19:53.70 19:34.20
Rachael Favela Traverse City West -54.60 19:34.90 20:29.50
Amanda Valliere Midland Bullock Creek +24.70 19:59.80 19:35.10
Sydney Anderson Livonia Churchill -1:07.50 19:35.20 20:42.70
Brittany Slinker Dundee +18.00 19:53.80 19:35.80
Kayla Balfour St. Clair -1:27.00 19:39.10 21:06.10
Erica Westbrook Boyne Falls -51.90 19:40.10 20:32.00
Lauren Halpern Ann Arbor Skyline -14.80 19:41.40 19:56.20
Marcy Marek Traverse City West -47.40 19:41.90 20:29.30
Bethany Pilat Livonia Churchill -49.50 19:43.00 20:32.50
Cassidy Hass Mason -1:42.80 19:46.00 21:28.80
Gina Mcnamara Northville +21.60 20:08.40 19:46.80
Maddie Buntin Harbor Springs -10.30 19:47.80 19:58.10
Matt Falls Carsonville-Port Sanilac +25.70 20:14.60 19:48.90
Kieren Becker Fowler -56.00 19:48.90 20:44.90
Rhi Cullip Harbor Springs +14.80 20:03.90 19:49.10
Kourtney Osentoski Temperance-Bedford -1:08.80 19:49.50 20:58.30
Michelle Kerr Dearborn Divine Child -0.40 19:51.20 19:51.60
Haley Burns Troy -41.00 19:51.70 20:32.70
Kelsey Thome Sparta -1:41.00 19:53.20 21:34.20
Erika Roe Caro +51.40 20:44.90 19:53.50
Sami Humphrey Alma -53.70 19:54.30 20:48.00
Lauren Cody Lawton -3.00 19:55.20 19:58.20
Kelsey Keyser Sturgis -57.30 19:56.00 20:53.30
Alex Rodriguez Northville -1:53.80 19:56.10 21:49.90
Cassidy Benedict Brighton -19.10 19:57.00 20:16.10
Lindsey Chinavare Hanover-Horton +1:05.50 21:04.30 19:58.80
Jessica D'haene DeWitt -1:35.60 19:59.10 21:34.70
Donna Aslakson Hesperia -2:35.80 19:59.30 22:35.10
Amber Peabody Benzie Central -37.90 19:59.50 20:37.40
Britta Patterson Cadillac -35.10 20:00.50 20:35.60
Brooke Johnson New Boston Huron -1:12.10 20:00.90 21:13.00
Hannah Schilling Macomb Lutheran North -20.80 20:01.40 20:22.20
Ginny Hoch North Muskegon -1:25.60 20:02.40 21:28.00
Gabriella Deflorio Farmington +1:42.40 21:45.20 20:02.80
Lauren Bules Temperance-Bedford -1:33.10 20:02.80 21:35.90
Madeline Hartlieb Schoolcraft -59.40 20:03.10 21:02.50
Sarah Warniak Flint Powers Catholic -1:07.20 20:04.30 21:11.50
Erin Bachler Monroe Jefferson -1:16.70 20:05.00 21:21.70
Molly Jeakle Charlevoix -1:05.60 20:06.50 21:12.10
Carley Woolcott New Boston Huron +1:18.50 21:25.40 20:06.90
Sarah Hartlieb Schoolcraft -2:03.80 20:07.60 22:11.40
Kaitlyn Arnold Jackson Northwest -36.90 20:07.90 20:44.80
McKenzie Govier Marine City -1:42.00 20:08.40 21:50.40
Kayla Hanses DeWitt +29.30 20:37.80 20:08.50
Megan Sanchez Hudsonville -14.70 20:09.70 20:24.40
Maggie Klob Beal City +10.10 20:20.30 20:10.20
Kaitlyn Alessi Harbor Springs -1:09.40 20:10.40 21:19.80
Sommer Vandyke Cedar Springs -57.80 20:10.90 21:08.70
Brianna Russell Delton Kellogg +47.10 20:58.10 20:11.00
Kellie Rizzolo Stockbridge -27.20 20:11.80 20:39.00
Schuetze Sophie Traverse City Grand Traverse Academy -8.60 20:12.40 20:21.00
Hailey Richards Bad Axe -2:21.40 20:13.90 22:35.30
Isabel Fontana Bloomfield Hills Lahser (CLOSED) -1:05.20 20:14.30 21:19.50
Madi Atkinson Durand -2:26.60 20:14.40 22:41.00
Erica Halm Williamston +5.10 20:19.60 20:14.50
Claire Gilbert Owosso +34.50 20:49.40 20:14.90
Monica Babcock Detroit Country Day -41.20 20:15.20 20:56.40
Allyson Jenkins Saugatuck -43.60 20:15.60 20:59.20
Jackie Lane East Lansing -28.20 20:16.20 20:44.40
Alyssa Abendroth Bath -4:37.60 20:16.80 24:54.40
Kalie Milne Flint Powers Catholic -29.20 20:17.70 20:46.90
Miriah Hagy Lansing Christian -1:26.80 20:20.00 21:46.80
Brittany Williams Newaygo -1:49.20 20:20.50 22:09.70
Hannah Rhoades Waterford Mott +4.10 20:25.30 20:21.20
Courtney Clark Concord -1:11.50 20:21.40 21:32.90
Sierra Melling Hanover-Horton -1:01.70 20:23.30 21:25.00
Jessica Nave Berrien Springs +31.90 20:56.20 20:24.30
Kayee Wilson Boyne Falls +1:27.70 21:54.20 20:26.50
Michala Bundy Mt. Pleasant -2:00.60 20:26.80 22:27.40
Aryn Cowley Sandusky -19.30 20:26.90 20:46.20
Katelynn Carver Waterford Mott +1:24.20 21:51.30 20:27.10
Alysia Campos Traverse City Grand Traverse Academy -1:18.00 20:27.40 21:45.40
Lindsay Hall Flint Powers Catholic -2:08.40 20:27.60 22:36.00
Anne Okonowski Dearborn Divine Child -1:39.40 20:28.10 22:07.50
Anna Berkemeier Jackson Lumen Christi -57.50 20:28.10 21:25.60
Jade Murzyn Saugatuck -1:04.50 20:30.70 21:35.20
Lise Deritis Bloomfield Hills Andover (CLOSED) +19.80 20:51.90 20:32.10
Megan Skinner Hartland -48.30 20:34.20 21:22.50
Laura Norquist Parchment -58.70 20:34.50 21:33.20
Jaylee Brown Bear Lake +7.50 20:42.30 20:34.80
Lauren Zens St. Clair -1:10.90 20:36.40 21:47.30
Heidi Wobrock Onsted -22.10 20:37.40 20:59.50
Angela Ottenwess Grand Rapids Forest Hills Eastern -46.40 20:39.50 21:25.90
Haley Morairty Buckley -1:10.80 20:39.50 21:50.30
Jordan Krauss Perry +19.00 20:59.10 20:40.10
Charlotte Long Battle Creek St. Philip +55.50 21:35.70 20:40.20
Jamie Madrigal Durand -2:28.20 20:40.20 23:08.40
Allison Mcginn Hartland -35.40 20:42.30 21:17.70
Jessica Adams Flint Powers Catholic -1:04.30 20:45.90 21:50.20
Hannah Passino Indian River-Inland Lakes +36.20 21:22.60 20:46.40
Ana Luci Fernandez Bloomfield Hills Lahser (CLOSED) -9.90 20:48.40 20:58.30
Rademacher Lauren DeWitt -48.40 20:49.10 21:37.50
Heather Dietrick Grosse Ile -12.50 20:49.80 21:02.30
Abby Thorp Caro -12.20 20:54.40 21:06.60
Emily Pap Dexter -16.10 20:54.70 21:10.80
Kaytlynne Kerwin Kent City +25.60 21:21.20 20:55.60
Johnica March Homer -1:21.90 20:56.50 22:18.40
Erin Lyle Lutheran Westland -52.30 20:57.40 21:49.70
Rachel Termarsch Auburn Hills Oakland Christian +58.70 21:59.30 21:00.60
Jacklyn Yates Hesperia -42.70 21:03.40 21:46.10
Jenna Klynstra Saranac -58.40 21:06.60 22:05.00
Angelica Arriola Dearborn Divine Child -54.90 21:07.50 22:02.40
Morgan West Potterville -21.90 21:12.70 21:34.60
Megan Ewald Caro -18.10 21:13.60 21:31.70
Jolene Drum Delton Kellogg +9.30 21:24.00 21:14.70
Selena Wallace Birmingham Seaholm -31.20 21:14.90 21:46.10
Kelly Ferguson Bridgman -1:07.60 21:14.90 22:22.50
Caitlin Snyder Royal Oak Shrine -1:41.70 21:16.70 22:58.40
Andrea Roe Lake Fenton -1:48.10 21:17.20 23:05.30
Alexis Nelson Auburn Hills Oakland Christian -2:02.00 21:17.40 23:19.40
Morgan Button Royal Oak Shrine -0.20 21:23.00 21:23.20
Elizabeth Ritchie Decatur -1:15.90 21:23.90 22:39.80
Hallie Roof Sand Creek -39.40 21:27.20 22:06.60
Shelby Petersen Marysville -1:25.90 21:28.60 22:54.50
Morgan Scott Freeland +6.40 21:37.00 21:30.60
Jessica Drife Lutheran Westland -1:02.50 21:36.20 22:38.70
Alina Prusko East Kentwood +1:42.50 23:19.80 21:37.30
Nicole Macker Yale -18.50 21:40.80 21:59.30
Ruthie Squires Mayville -3:58.30 21:42.10 25:40.40
Taylor Stawecki Yale -1:16.60 21:49.90 23:06.50
Nikkia Lopshire Freeland -50.10 21:51.50 22:41.60
Rowan Estenik Traverse City Grand Traverse Academy +1:35.00 23:28.30 21:53.30
Becky Fernelius Lake Fenton -4:35.60 21:58.10 26:33.70
Ashley Daniels Ottawa Lake-Whiteford -1:03.20 22:04.50 23:07.70
Carlie Lawrence Almont -6.60 22:07.50 22:14.10
Autumn Odom Centreville -2:43.20 22:18.80 25:02.00
Sarah Payne Concord -1:33.00 22:23.90 23:56.90
Megan Lawrence Schoolcraft -1:03.30 22:24.60 23:27.90
Katie Bollman Williamston +14.90 22:47.00 22:32.10
Alyssa Leach Almont -9.20 22:37.50 22:46.70
Brielle Johnson North Muskegon +1.30 23:10.40 23:09.10
Heidi Cornett Centreville -2:43.30 23:19.30 26:02.60
Bethany Riess Centreville -1:30.30 23:37.00 25:07.30
Larissa Schwerin Beal City -1:04.20 23:41.90 24:46.10
Brooke Corbin Almont +24.00 25:03.70 24:39.70
Shelby Roof-Hildreth Sand Creek +10.70 26:15.80 26:05.10
Shelby Webb Auburn Hills Oakland Christian -15.60 26:59.10 27:14.70